Altoona, PA

8:38 AM EDT on April 23, 2017 (GMT -0400)
Altoona-Blair County

Weather History for KAOO - March, 2014

Change the Weather History Date:

Sunday, March 2, 2014

  Actual Average Record
Temperature  
Mean Temperature 31 °F 32 °F  
Max Temperature 40 °F 41 °F 72 °F (1991)
Min Temperature 22 °F 24 °F 1 °F (1980)
Degree Days  
Heating Degree Days 34 33  
Month to date heating degree days 74 66  
Since 1 July heating degree days 4818 4621  
Cooling Degree Days 0 0  
Month to date cooling degree days 0 0  
Year to date cooling degree days 0 0  
Moisture  
Dew Point 27 °F    
Average Humidity 76    
Maximum Humidity 89    
Minimum Humidity 62    
Precipitation  
Precipitation 0.04 in 0.08 in 0.74 in (1994)
Month to date precipitation 0.04 0.16  
Year to date precipitation 3.40 4.37  
Sea Level Pressure  
Sea Level Pressure 30.05 in    
Wind  
Wind Speed 7 mph (NNW)    
Max Wind Speed 15 mph    
Max Gust Speed 18 mph    
Visibility 6 miles    
Events Snow    
T = Trace of Precipitation, MM = Missing Value Source: NWS Daily Summary

Daily Weather History Graph

Daily Weather History Graph

Search for Another Location

Airport or City:

Trip Planner

Search our weather history database for the weather conditions in past years. The results will help you decide how hot, cold, wet, or windy it might be!

Date:

Astronomy

Mar. 02, 2014 Rise Set
Actual Time 6:45 AM EST 6:06 PM EST
Civil Twilight 6:18 AM EST 6:33 PM EST
Nautical Twilight 5:46 AM EST 7:04 PM EST
Astronomical Twilight 5:15 AM EST 7:36 PM EST
Moon 7:15 AM EST (3/2) 8:00 PM EST (3/2)
Length of Visible Light 12h 15m
Length of Day
11h 20m
Waxing Crescent, 3% of the Moon is Illuminated
Mar 2
Waxing Crescent
Mar 8
First Quarter
Mar 16
Full
Mar 23
Last Quarter
Mar 30
New

Hourly Weather History & Observations

Time (EST) Temp. Windchill Dew Point Humidity Pressure Visibility Wind Dir Wind Speed Gust Speed Precip Events Conditions
12:53 AM 36.0 °F 29.0 °F 28.0 °F 73% 30.10 in 9.0 mi SSW 9.2 mph - N/A   Overcast
1:53 AM 37.9 °F 32.1 °F 28.9 °F 70% 30.09 in 10.0 mi SSW 8.1 mph - N/A   Overcast
2:53 AM 37.0 °F 32.4 °F 30.0 °F 76% 30.07 in 10.0 mi WSW 5.8 mph - N/A   Overcast
3:53 AM 37.0 °F 34.5 °F 28.9 °F 73% 30.05 in 10.0 mi Variable 3.5 mph - N/A   Overcast
4:53 AM 37.0 °F - 28.9 °F 73% 30.04 in 10.0 mi Calm Calm - N/A   Overcast
5:53 AM 36.0 °F 32.1 °F 27.0 °F 70% 30.07 in 10.0 mi NNW 4.6 mph - N/A   Overcast
6:53 AM 35.1 °F 30.1 °F 28.9 °F 78% 30.09 in 10.0 mi NNE 5.8 mph - N/A   Overcast
7:12 AM 35.1 °F 27.9 °F 28.0 °F 76% 30.06 in 10.0 mi NNE 9.2 mph - N/A   Overcast
7:53 AM 34.0 °F 28.8 °F 28.0 °F 79% 30.12 in 8.0 mi North 5.8 mph - N/A   Overcast
8:53 AM 35.1 °F 30.1 °F 28.0 °F 76% 30.12 in 9.0 mi WNW 5.8 mph - N/A   Overcast
9:53 AM 36.0 °F 32.1 °F 28.9 °F 76% 30.09 in 7.0 mi West 4.6 mph - N/A   Overcast
10:00 AM 35.1 °F 32.2 °F 28.9 °F 78% 30.04 in 7.0 mi WSW 3.5 mph - N/A   Overcast
10:53 AM 35.1 °F 32.2 °F 28.9 °F 78% 30.07 in 5.0 mi SW 3.5 mph - N/A   Haze
11:11 AM 35.1 °F 30.1 °F 30.0 °F 82% 30.04 in 1.8 mi West 5.8 mph - 0.00 in Snow Light Snow
11:35 AM 34.0 °F 28.8 °F 30.9 °F 89% 30.04 in 2.5 mi West 5.8 mph - 0.00 in Snow Light Snow
11:48 AM 35.6 °F 31.7 °F 30.2 °F 81% 30.03 in 1.5 mi WNW 4.6 mph - 0.00 in Snow Light Snow
11:53 AM 35.1 °F 32.2 °F 32.0 °F 89% 30.07 in 1.2 mi NNW 3.5 mph - 0.00 in Snow Light Snow
12:23 PM 34.0 °F 28.8 °F 32.0 °F 92% 30.03 in 1.2 mi North 5.8 mph - 0.00 in Snow Light Snow
12:37 PM 34.0 °F 29.8 °F 30.9 °F 89% 30.02 in 0.8 mi North 4.6 mph - 0.01 in Snow Light Snow
12:44 PM 34.0 °F 28.8 °F 30.9 °F 89% 30.02 in 0.8 mi NW 5.8 mph - 0.01 in Snow Light Snow
12:53 PM 33.1 °F 26.1 °F 30.9 °F 92% 30.06 in 0.8 mi NW 8.1 mph - 0.01 in Snow Light Snow
1:42 PM 33.1 °F 26.9 °F 30.9 °F 92% 30.01 in 1.0 mi NNE 6.9 mph - 0.02 in Snow Light Snow
1:53 PM 33.1 °F 26.9 °F 30.0 °F 89% 30.04 in 1.2 mi NNE 6.9 mph - 0.02 in Snow Light Snow
2:07 PM 33.1 °F 28.7 °F 30.0 °F 89% 30.00 in 1.5 mi North 4.6 mph - 0.00 in Snow Light Snow
2:20 PM 32.0 °F 26.4 °F 30.0 °F 92% 29.99 in 1.5 mi North 5.8 mph - 0.00 in Snow Light Snow
2:27 PM 32.0 °F 24.8 °F 30.0 °F 92% 29.99 in 1.5 mi North 8.1 mph - 0.00 in Snow Light Snow
2:39 PM 32.0 °F 26.4 °F 28.9 °F 88% 29.99 in 1.8 mi North 5.8 mph - 0.00 in Snow Light Snow
2:53 PM 32.0 °F 25.6 °F 28.9 °F 88% 30.04 in 1.8 mi North 6.9 mph - 0.00 in Snow Light Snow
3:20 PM 32.0 °F 25.6 °F 28.9 °F 88% 30.00 in 1.0 mi North 6.9 mph - 0.01 in Snow Light Snow
3:36 PM 32.0 °F 25.6 °F 28.0 °F 85% 30.00 in 2.0 mi North 6.9 mph - 0.01 in Snow Light Snow
3:53 PM 32.0 °F 24.8 °F 27.0 °F 82% 30.05 in 7.0 mi North 8.1 mph - 0.01 in   Overcast
4:09 PM 32.0 °F 27.5 °F 27.0 °F 82% 30.01 in 10.0 mi North 4.6 mph - N/A   Overcast
4:53 PM 30.9 °F 23.5 °F 23.0 °F 72% 30.05 in 10.0 mi NNW 8.1 mph - N/A   Overcast
5:53 PM 30.0 °F 22.4 °F 21.9 °F 72% 30.06 in 10.0 mi NNW 8.1 mph - N/A   Overcast
6:21 PM 28.9 °F 21.1 °F 21.9 °F 75% 30.01 in 10.0 mi WNW 8.1 mph - N/A   Overcast
6:53 PM 28.0 °F 19.3 °F 19.9 °F 72% 30.06 in 10.0 mi NNW 9.2 mph - N/A   Overcast
7:53 PM 27.0 °F 16.1 °F 18.0 °F 69% 30.08 in 10.0 mi NW 12.7 mph - N/A   Overcast
8:53 PM 25.0 °F 14.2 °F 17.1 °F 72% 30.08 in 10.0 mi NW 11.5 mph - N/A   Overcast
9:53 PM 24.1 °F 12.0 °F 15.1 °F 69% 30.09 in 10.0 mi NW 13.8 mph - N/A   Overcast
10:53 PM 24.1 °F 12.5 °F 14.0 °F 65% 30.08 in 10.0 mi NW 12.7 mph - N/A   Overcast
11:53 PM 23.0 °F 14.7 °F 12.9 °F 65% 30.07 in 10.0 mi North 6.9 mph - N/A   Overcast